AO-07 1 07530U 74089B 26248.26000325 -.00000045 00000-0 92476-5 0 9996 2 07530 101.9921 262.3440 0012128 340.1802 81.7746 12.53699399370552 UO-11 1 14781U 84021B 26248.15646693 .00000695 00000-0 76024-4 0 9991 2 14781 97.8151 212.8846 0006034 283.1962 76.8582 14.90969283269047 LO-19 1 20442U 90005G 26247.85719567 .00000021 00000-0 24405-4 0 9997 2 20442 98.8832 271.8499 0011053 337.6619 22.4082 14.34141783913813 AO-27 1 22825U 93061C 26248.13207176 .00000020 00000-0 24513-4 0 9998 2 22825 98.6810 315.4887 0007656 219.7552 140.3070 14.30959344718434 FO-29 1 24278U 96046B 26248.15839048 -.00000031 00000-0 69316-5 0 9993 2 24278 98.5179 86.0677 0348887 248.8466 107.5061 13.53277650483985 GO-32 1 25397U 98043D 26248.00052984 .00000022 00000-0 29500-4 0 9994 2 25397 99.0142 242.7982 0001530 31.4058 328.7211 14.24441283462691 ISS 1 25544U 98067A 26248.17592762 .00003558 00000-0 72743-4 0 9999 2 25544 51.6310 264.2007 0005041 108.5564 251.5973 15.48992921584153 NO-44 1 26931U 01043C 26247.85219061 .00000041 00000-0 46187-4 0 9997 2 26931 67.0511 38.2153 0005691 271.3452 88.6999 14.31980742301855 SO-50 1 27607U 02058C 26248.26082318 .00000519 00000-0 79039-4 0 9996 2 27607 64.5503 241.2091 0072544 247.7605 111.5796 14.83194632276331 CO-55 1 27844U 03031E 26247.48640235 .00000142 00000-0 80385-4 0 9990 2 27844 98.6770 255.0598 0008765 321.2746 38.7804 14.24376449202962 RS-22 1 27939U 03042A 26248.28195811 .00000241 00000-0 45379-4 0 9995 2 27939 98.3491 74.9247 0011807 20.6501 93.9184 14.73586108227345 CO-65 1 32785U 08021C 26248.24389817 .00003119 00000-0 19548-3 0 9994 2 32785 97.8362 231.4024 0010282 112.0778 248.1543 15.10090013997278 CO-66 1 32791U 08021J 26248.23758919 .00011477 00000-0 33755-3 0 9995 2 32791 97.7568 250.1329 0004026 60.2195 299.9447 15.35262342999568 RS-30 1 32953U 08025A 26248.25466126 .00000040 00000-0 21860-3 0 9995 2 32953 82.5040 305.6450 0020509 135.0606 225.2139 12.43182671829641 SRMSAT 1 37841U 11058D 26248.16428087 .00000355 00000-0 49170-4 0 9994 2 37841 19.9721 295.3803 0011823 4.9505 25.2399 14.11590457769135 ZACUBE-1 1 39417U 13066B 26247.84839164 .00003527 00000-0 27127-3 0 9993 2 39417 97.8094 210.5792 0040925 346.7483 13.2662 15.01720866692681 Delfi-N3xt 1 39428U 13066N 26248.26672209 .00004402 00000-0 37835-3 0 9997 2 39428 97.8291 168.5324 0071399 301.1159 58.3071 14.95993559686599 GOMX-1 1 39430U 13066Q 26248.25797185 .00001175 00000-0 18184-3 0 9990 2 39430 97.6449 83.6746 0127926 179.5252 180.6100 14.69665614681674 LO-74 1 39440U 13066AA 26248.29920957 .00001353 00000-0 12776-3 0 9999 2 39440 97.8966 197.6690 0058330 120.6657 240.0330 14.94216323688954 AO-73 1 39444U 13066AE 26247.90903049 .00003511 00000-0 21472-3 0 9994 2 39444 97.8363 221.1119 0033645 293.7219 66.0482 15.10481180691699 DTUSAT-2 1 40030U 14033W 26247.73436155 .00003579 00000-0 19068-3 0 9994 2 40030 98.0920 250.5885 0006831 336.1119 23.9794 15.15916612664739 LILACSAT-2 1 40908U 15049K 26248.31280722 .00011454 00000-0 17880-3 0 9999 2 40908 97.4581 288.3136 0005158 333.5749 26.5240 15.53980120608187 Lapan A3 1 41603U 16040E 26248.26484259 .00001942 00000-0 62097-4 0 9991 2 41603 97.1558 241.8315 0012153 88.7209 271.5427 15.33545128567082 CAS-2T 1 41847U 16066G 26248.22906489 .00000429 00000-0 70291-4 0 9993 2 41847 98.3764 323.0466 0340128 246.5840 109.9249 14.44826478516356 TechnoSat 1 42829U 17042E 26248.22454150 .00001659 00000-0 11963-3 0 9998 2 42829 97.4394 42.9088 0017596 174.8061 185.3352 15.05356839498743 AO-91 1 43017U 17073E 26248.15461516 .00005316 00000-0 22654-3 0 9991 2 43017 97.4583 113.7374 0149119 52.6599 308.8111 15.13769089477481 S-Net D 1 43186U 18014G 26248.20901956 .00002815 00000-0 14452-3 0 9995 2 43186 97.5262 152.4960 0009856 98.7991 261.4359 15.17306641470895 S-Net B 1 43187U 18014H 26248.22209584 .00002809 00000-0 14429-3 0 9993 2 43187 97.5267 152.4976 0010504 95.1250 265.1182 15.17274703470897 S-Net A 1 43188U 18014J 26248.20746109 .00002783 00000-0 14284-3 0 9991 2 43188 97.5277 152.7077 0010401 95.6671 264.5749 15.17314988470894 S-Net C 1 43189U 18014K 26247.69885848 .00002618 00000-0 13475-3 0 9996 2 43189 97.5294 152.2891 0011737 91.1015 269.1563 15.17261040469364 Ten-Koh 1 43677U 18084G 26247.80934786 .00001106 00000-0 86638-4 0 9997 2 43677 98.0756 83.5397 0008754 202.1059 157.9788 15.03218692428121 PO-101 1 43678U 18084H 26248.32094632 .00000790 00000-0 67584-4 0 9990 2 43678 98.1193 88.0573 0010872 261.3343 98.6648 15.00701768428237 QO-100 1 43700U 18090A 26248.10002147 .00000135 00000-0 00000-0 0 9998 2 43700 0.0168 187.1622 0002494 14.4743 204.3777 1.00269791 28476 MinXSS-2 1 43758U 18099A 26248.16150633 .00028634 00000-0 46763-3 0 9993 2 43758 97.4456 327.0889 0005309 334.0986 26.0000 15.52517949426515 AO-95 1 43770U 18099N 26247.93307238 .00006118 00000-0 22481-3 0 9990 2 43770 97.4308 307.9388 0009779 71.1591 289.0708 15.28237080425391 SNUSat 2 1 43782U 18099AA 26248.12708205 .00003644 00000-0 15815-3 0 9998 2 43782 97.3988 300.3099 0010425 24.8847 335.2890 15.22917679425199 SnugLite 1 43784U 18099AC 26248.10496695 .00005484 00000-0 19930-3 0 9991 2 43784 97.3796 301.6530 0003202 39.5885 320.5588 15.28686239425521 ITASat 1 1 43786U 18099AE 26248.09895492 .00003410 00000-0 16147-3 0 9993 2 43786 97.3957 298.0317 0013877 76.2135 284.0644 15.19922271425042 EAGLET 1 1 43790U 18099AJ 26248.06631237 .00001905 00000-0 10999-3 0 9996 2 43790 97.4161 295.6148 0012585 72.7816 287.4792 15.13452814424418 ESEO 1 43792U 18099AL 26248.06573786 .00000276 00000-0 23883-4 0 9999 2 43792 97.3913 282.0208 0013420 64.0012 296.2595 15.04440977423811 JO-97 1 43803U 18099AX 26246.72149691 .00011876 00000-0 34094-3 0 9990 2 43803 97.4046 309.9287 0004940 7.3493 352.7822 15.35992618425673 Suomi 100 1 43804U 18099AY 26248.16448230 .00007047 00000-0 24421-3 0 9990 2 43804 97.4108 308.3228 0009351 6.8624 353.2743 15.30106154425644 ISAT 1 43879U 18111D 26248.29556817 .00255813 25665-4 91786-3 0 9994 2 43879 97.5783 190.8425 0007256 116.9142 243.2872 15.88714672423775 UWE-4 1 43880U 18111E 26248.08453558 .00023246 00000-0 40063-3 0 9998 2 43880 97.5813 180.4423 0008666 51.7068 308.4962 15.51022420423141 Prox-1 1 44339U 19036A 26248.20704661 .00007427 00000-0 68192-3 0 9999 2 44339 23.9954 298.9997 0004932 239.3724 120.6289 14.92290680385430 Taurus 1 1 44530U 19059C 26248.29182075 .00003260 00000-0 51820-3 0 9996 2 44530 98.6495 58.1742 0009348 64.2072 296.0097 14.72811360370434 TO-108 1 44881U 19093C 26248.27842088 .00000310 00000-0 40889-4 0 9995 2 44881 97.7460 318.5346 0013375 177.2309 182.8983 14.86620775363319 RS-44 1 44909U 19096E 26248.21720471 .00000002 00000-0 -29204-4 0 9991 2 44909 82.5187 286.5316 0216690 317.4808 40.9684 12.79749112312588 SALSAT 1 46495U 20068K 26248.24542864 .00004576 00000-0 15640-3 0 9992 2 46495 97.8892 256.2611 0010218 31.5733 328.6117 15.30804542327608 CSS (TIANHE-1) 1 48274U 21035A 26248.17235606 .00012590 00000-0 15760-3 0 9997 2 48274 41.4676 196.4318 0002296 258.8752 101.1828 15.59590211305651 TeikyoSat 4 1 49396U 21102B 26248.32344726 .00000761 00000-0 50873-4 0 9991 2 49396 97.3641 274.6886 0012587 24.7288 335.4543 15.09746793264817 Z-Sat 1 49399U 21102E 26248.32608057 .00002214 00000-0 10936-3 0 9994 2 49399 97.3283 281.2231 0015506 333.3381 26.7055 15.18796434265600 KOSEN 1 1 49402U 21102H 26248.06981624 .00003650 00000-0 13682-3 0 9990 2 49402 97.3127 288.7024 0011516 286.2936 73.7037 15.27826441266215 HO-113 1 50466U 21131B 26248.30137230 .00000267 00000-0 95937-4 0 9992 2 50466 98.4967 340.2561 0003514 202.1633 157.9404 14.41418720246652 SNUGLITE 2 1 52899U 22065F 26248.17917403 .00000514 00000-0 10623-3 0 9997 2 52899 98.2316 32.9251 0008480 127.4605 232.7370 14.64471335222706 UmKA 1 (RS40S) 1 57172U 23091G 26248.27786344 .00003009 00000-0 13632-3 0 9990 2 57172 97.4975 306.6775 0012140 192.5129 167.5807 15.21590168176181 CubeBel-2 (EU11S) 1 57175U 23091K 26248.23211665 .00007461 00000-0 25225-3 0 9995 2 57175 97.4974 312.2334 0009383 181.9835 178.1370 15.30893695176542 RS-38S 1 57189U 23091Z 26248.27998591 .00011138 00000-0 29656-3 0 9992 2 57189 97.5020 319.4764 0007911 136.7362 223.4506 15.38340219176995 SONATE-2 1 59112U 24043Q 26247.39762554 .00037334 00000-0 38219-3 0 9999 2 59112 97.5610 43.0681 0005063 265.5553 94.5128 15.64903119140255 GRBBeta 1 60237U 24128C 26248.11440850 .00001199 00000-0 93249-4 0 9991 2 60237 61.9898 295.7357 0029064 152.1993 208.0661 15.07126990118317 Curium One 1 60242U 24128H 26248.26882685 .00003115 00000-0 18415-3 0 9990 2 60242 61.9779 281.9131 0028059 146.7560 213.5307 15.13524349118573 ROBUSTA-3A 1 60243U 24128J 26248.21391868 .00002717 00000-0 16610-3 0 9996 2 60243 61.9860 285.0333 0029977 144.0061 216.3061 15.12636794118521 CatSat 1 60246U 24125J 26247.86671533 .00067396 00000-0 56330-3 0 9993 2 60246 97.1985 101.9901 0014672 236.0216 123.9653 15.69679444119847 AO-123 1 61781U 24199AY 26248.28449891 .00004759 00000-0 13455-3 0 9991 2 61781 97.2873 116.2396 0014244 28.1275 332.0736 15.36719330146226 LASARsat 1 62391U 24247Q 26248.21025926 .00026889 00000-0 45094-3 0 9997 2 62391 44.9716 170.8637 0007790 137.7660 222.3833 15.51360300 95729 CroCube 1 62394U 24247T 26248.15436988 .00033079 00000-0 50040-3 0 9993 2 62394 44.9691 166.9364 0008340 148.4363 211.7032 15.54118972 95764 JINJUSat 1B 1 63210U 25052A 26248.14924324 .00010017 00000-0 28978-3 0 9993 2 63210 97.3879 145.0976 0004419 130.3871 229.7759 15.35802976 82366 NUSHSAT 1 1 63211U 25052B 26248.24336892 .00013253 00000-0 34606-3 0 9992 2 63211 97.3854 146.0694 0004096 129.4487 230.7121 15.38915374 82445 TEVEL2-4 1 63213U 25052D 26248.24998914 .00011693 00000-0 32279-3 0 9993 2 63213 97.3775 144.8767 0003425 136.1799 223.9718 15.37227044 82403 TEVEL2-5 1 63214U 25052E 26248.15040565 .00011324 00000-0 31494-3 0 9993 2 63214 97.3773 144.6993 0003180 139.1893 220.9590 15.37005362 82386 TEVEL2-6 1 63215U 25052F 26248.16453888 .00011371 00000-0 31654-3 0 9991 2 63215 97.3776 144.6986 0003199 140.7252 219.4225 15.36975503 82389 TEVEL2-1 1 63217U 25052H 26248.22383084 .00010914 00000-0 31012-3 0 9990 2 63217 97.3750 144.2809 0002808 150.2727 209.8677 15.36344369 82375 TEVEL2-3 1 63218U 25052J 26248.14994314 .00011192 00000-0 31721-3 0 9992 2 63218 97.3755 144.2408 0002489 147.4316 212.7082 15.36418183 82361 TEVEL2-2 1 63219U 25052K 26248.15840232 .00010818 00000-0 30729-3 0 9994 2 63219 97.3751 144.2197 0002841 152.5981 207.5413 15.36356554 82363 TEVEL2-9 1 63237U 25052AD 26248.24432457 .00009843 00000-0 29990-3 0 9994 2 63237 97.3810 143.4954 0004974 195.6655 164.4435 15.34167395 82294 TEVEL2-7 1 63238U 25052AE 26248.23693574 .00009487 00000-0 29240-3 0 9995 2 63238 97.3813 143.3663 0004835 196.5589 163.5496 15.33810358 82285 TEVEL2-8 1 63239U 25052AF 26248.24587640 .00009645 00000-0 29732-3 0 9995 2 63239 97.3813 143.3504 0004921 197.1278 162.9799 15.33800069 82285 SPIRONE 1 66657U 25274H 26248.24078973 .00000896 00000-0 89695-4 0 9996 2 66657 97.7474 176.3988 0013529 105.3391 254.9325 14.93814420 42174 K-HERO 1 66660U 25274L 26247.55402642 .00001387 00000-0 13453-3 0 9991 2 66660 97.7480 175.9401 0015360 111.7096 248.5761 14.94208572 42087 SNUGLITE-III DURI 1 66661U 25274M 26248.07623457 .00001059 00000-0 10397-3 0 9999 2 66661 97.7480 176.4761 0015931 111.3060 248.9862 14.94218446 42160 SAKHACUBE-CHOLBON 1 67290U 25313AU 26248.18303464 .00005410 00000-0 21183-3 0 9997 2 67290 97.3869 322.2639 0010460 77.3436 282.8971 15.26175745 38175 RS95S (QMR-KWT-2) 1 67291U 25313AV 26248.14763920 .00007794 00000-0 28612-3 0 9992 2 67291 97.3869 322.6062 0009817 75.7825 284.4505 15.28174446 38190 Ten-Koh2 1 68261U 25241B 26247.86875120 .00002688 00000-0 12045-3 0 9994 2 68261 51.6651 300.1362 0007659 47.0757 313.0863 15.24782708 27064 JACK-002 1 68417U 26067B 26248.15528246 .00003678 00000-0 17269-3 0 9994 2 68417 97.4644 205.8399 0002812 44.2576 315.8883 15.20255829 24099 DISCO 2 1 68431U 26067R 26247.33206549 .00004506 00000-0 21159-3 0 9992 2 68431 97.4675 205.0224 0004181 83.5664 276.6047 15.20127753 23968 HADES-SA (SpinnyONE) 1 68446U 26067AG 26247.59761519 .00010973 00000-0 48973-3 0 9997 2 68446 97.4466 204.8751 0007831 140.4162 219.7647 15.21522429 23992 PARUS-6U1 1 68456U 26067AS 26247.82312170 .00003253 00000-0 16214-3 0 9995 2 68456 97.4628 205.0356 0006733 133.2844 226.8953 15.18241903 24018 SAL-E 1 68458U 26067AU 26248.12781052 .00003697 00000-0 18109-3 0 9997 2 68458 97.4552 205.2393 0006801 139.4739 220.7003 15.18765179 24066 FSI-SAT 2 1 68792U 26088A 26248.22387201 .00003088 00000-0 20781-3 0 9993 2 68792 97.5178 35.5568 0014045 188.6241 171.4748 15.07374485 20342 OrigamiSat 2 1 68795U 26088D 26247.37546965 .00008113 00000-0 49736-3 0 9990 2 68795 97.5164 35.1522 0015080 163.1863 196.9870 15.10320518 20243 ARICA 2 1 68796U 26088E 26247.88270260 .00002595 00000-0 16782-3 0 9992 2 68796 97.5172 35.5347 0015979 160.4227 199.7619 15.08972107 20317 WASEDA-SAT-ZERO-II 1 68797U 26088F 26247.92726734 .00002875 00000-0 18329-3 0 9990 2 68797 97.5164 35.6230 0015786 159.6424 200.5438 15.09414587 20321 MANGARO-II-Piscus 1 68798U 26088G 26248.18311264 .00001991 00000-0 12850-3 0 9999 2 68798 97.5176 35.9145 0019273 162.7654 197.4234 15.09268201 20360 CO-128 1 69912U 26156AV 26246.66669709 .00000988 00000-0 10570-3 0 9997 2 69912 97.7491 146.0817 0001767 347.2576 12.8597 14.90918405 8694 MARINA 1 69920U 26156BD 26246.95610418 .00001332 00000-0 13645-3 0 9991 2 69920 97.7458 146.4496 0006685 331.7450 28.3405 14.92128142 8745 IO-86 1 40931U 26199.45381863 .00000000 00000-0 77536-4 0 07 2 40931 6.0006 322.6653 0012733 338.8432 273.6875 14.79294310 03 LILIUM-4 1 71922C 26067AC 26089.50133053 -.00014632 00000 0 -74472-3 0 04 2 71922 97.4497 49.1617 0004341 5.9603 355.7042 15.16896692 16